OREBRO PRIVATE current weather conditions

sailwx.info

Wind from 360 at 3 knots

Air temperature 8.0° C
Visibility: greater than 5.4 NM
Dewpoint 7.0° C

Last reported at 2014-Aug-29 01:20 UTC.
Time now 2014-Aug-29 03:31 UTC

Location: N 59°14' E 015°03'.
View on Google Maps.

See reports from other nearby stations

  
Tides and Currents Weather Stations Pressure Air Temp Water Temp Dewpoint Dewpoint Depression Visibility Wind Speed Wind Dir Waves Ship Positions
date/time (UTC)wind fromknots sea level pressurealtimeterstation pressurevisibilityair tempwater tempwave heightnotes
2014-Aug-29 02:50 360 2 5.4 8.0
2014-Aug-29 02:20 360 2 2.1 7.0
2014-Aug-29 01:50 5.4 7.0
2014-Aug-29 01:20 360 3 5.4 8.0
2014-Aug-29 00:50 360 5 5.4 8.0
2014-Aug-29 00:20 360 5 5.4 8.0
2014-Aug-28 23:50 010 5 5.4 9.0
2014-Aug-28 23:20 360 7 9.0
2014-Aug-28 22:50 360 5 9.0
2014-Aug-28 22:20 020 5 9.0
2014-Aug-28 21:50 360 3 8.0
2014-Aug-28 21:20 330 6 8.0
2014-Aug-28 20:50 270 4 9.0
2014-Aug-28 20:20 11.0
2014-Aug-28 19:50 260 3 10.0
2014-Aug-28 19:20 270 3 11.0
2014-Aug-28 18:50 270 6 11.0
2014-Aug-28 18:20 300 5 12.0
2014-Aug-28 17:50 290 4 15.0
2014-Aug-28 17:20 290 5 18.0
2014-Aug-28 16:50 300 6 19.0
2014-Aug-28 16:20 290 6 19.0
2014-Aug-28 15:50 300 6 20.0
2014-Aug-28 15:20 330 7 20.0
2014-Aug-28 14:50 310 7 20.0
2014-Aug-28 14:20 300 9 20.0
2014-Aug-28 13:50 340 7 20.0
2014-Aug-28 13:20 320 6 20.0
2014-Aug-28 12:50 290 7 20.0
2014-Aug-28 12:20 300 6 19.0
2014-Aug-28 11:50 340 8 20.0
2014-Aug-28 11:20 330 8 19.0
2014-Aug-28 10:50 340 9 18.0
2014-Aug-28 10:20 330 8 19.0
2014-Aug-28 09:50 340 10 18.0
2014-Aug-28 09:20 320 6 18.0
2014-Aug-28 08:50 340 7 17.0
2014-Aug-28 08:20 350 5 16.0
2014-Aug-28 07:50 300 5 15.0
2014-Aug-28 07:20 360 5 15.0
2014-Aug-28 06:50 330 7 14.0
2014-Aug-28 06:20 350 5 13.0
2014-Aug-28 05:50 340 8 12.0
2014-Aug-28 05:20 340 8 11.0
2014-Aug-28 04:50 320 7 9.0
2014-Aug-28 04:20 330 10 10.0
2014-Aug-28 03:50 340 9 9.0
2014-Aug-28 03:20 340 8 5.4 8.0
2014-Aug-28 02:50 340 7 5.4 8.0
2014-Aug-28 02:20 330 7 5.4 9.0
2014-Aug-28 01:50 320 7 5.4 8.0
2014-Aug-28 01:20 310 7 5.410.0
2014-Aug-28 00:50 310 7 5.4 9.0
2014-Aug-28 00:20 300 6 5.4 8.0
2014-Aug-27 23:50 310 6 5.4 8.0
2014-Aug-27 23:20 320 6 8.0
2014-Aug-27 22:50 310 5 7.0
2014-Aug-27 22:20 300 4 8.0
2014-Aug-27 21:50 320 5 10.0
2014-Aug-27 21:20 310 5 9.0
2014-Aug-27 20:50 280 4 9.0
2014-Aug-27 20:20 300 6 11.0
2014-Aug-27 19:50 270 4 10.0
2014-Aug-27 18:50 280 5 12.0
2014-Aug-27 17:50 290 5 15.0
2014-Aug-27 17:20 320 5 18.0
2014-Aug-27 16:50 330 6 19.0
2014-Aug-27 16:20 340 10 20.0
2014-Aug-27 15:50 330 10 20.0
2014-Aug-27 15:20 320 11 20.0
2014-Aug-27 14:50 350 13 21.0
2014-Aug-27 14:20 340 12 gusting 22 21.0
2014-Aug-27 13:50 310 12 21.0
2014-Aug-27 13:20 310 11 20.0
2014-Aug-27 12:50 330 13 20.0
2014-Aug-27 12:20 330 14 20.0
2014-Aug-27 11:50 310 13 20.0
2014-Aug-27 11:20 320 12 20.0
2014-Aug-27 10:50 340 13 20.0
2014-Aug-27 10:20 340 15 19.0
2014-Aug-27 09:50 320 12 19.0
2014-Aug-27 09:20 330 12 18.0
2014-Aug-27 08:50 310 11 18.0
2014-Aug-27 08:20 310 9 17.0
2014-Aug-27 07:50 320 9 16.0
2014-Aug-27 07:20 350 11 16.0
2014-Aug-27 06:50 330 8 15.0
2014-Aug-27 06:20 340 8 14.0
2014-Aug-27 05:50 330 10 13.0
2014-Aug-27 05:20 330 8 13.0
2014-Aug-27 04:50 330 10 12.0
2014-Aug-27 04:20 340 9 12.0
2014-Aug-27 03:50 330 8 12.0
2014-Aug-27 03:20 330 9 5.412.0